"Pseudo-MPEC" for P21kSoa

Created 2021 Sep 20 17:07:12 UT using Find_Orb

Click here for an explanation of pseudo-MPECs

 
 Astrometry: 
     P21kSoa  C2021 09 10!SAstrometry65vVq9(kqDK=redacted;DeOs6F(eO2*P%jSgq,#F52
     P21kSoa  C2021 09 10`)4WvHm:M09992)`nI5'S?`w59d`hG)clickXYr[M3bhere7L!Q^F52
     P21kSoa  C2021 09 10_k-.Zh;forTN8ihW*hyQKUc*Mx1`a#2explanation.KUyXc3FXgF52

Station data:
(F52) Pan-STARRS 2, Haleakala  (N20.707384 W156.255910)  US/Hawaii. 1.8-m
   Ritchey-Chrétien + CCD.

Orbital elements:  P21kSoa
   Perihelion 2021 Sep 15.882704 +/- 35.8672 TT = 21:11:05 (JD 2459473.382704)
Epoch 2021 Sep 10.0 TT = JDT 2459467.5   Earth MOID: 0.3213   Ma: 0.0000
M 358.56776408 +/- 30.758063        (J2000 ecliptic)          AutoNEOCP
n   0.24346556 +/- 0.317762         Peri.  131.99661 +/- 121.03525
a   2.54006217 +/- 2.17424          Node   228.98533 +/- 40.275840
e   0.4839710 +/- 0.250055          Incl.    6.29284 +/- 14.091671
P   4.05                   H 22.7   G  0.15   U 12.0  SR
q 1.31074554 +/- 0.427696    Q 3.76937880 +/- 70.1993
From 3 observations 2021 Sept. 10 (55.3 min); mean residual 0".46
Residuals in arcseconds: 
210910 F52  .49+  .35+    210910 F52  .73-  .53-    210910 F52  .25+  .18+    

Ephemerides (geocentric):
Date (UTC) HH   RA              Dec         delta   r     elong  mag " sig PA
---- -- -- --  -------------   -----------  ------ ------ -----  --- ---- ---
2021 09 20 17  01 15 41.510   +25 53 00.47  .35202 1.3117 146.3 22.2  63d  19
2021 09 20 18  01 15 45.061   +25 52 51.41  .35197 1.3117 146.4 22.2  63d  19
2021 09 20 19  01 15 48.609   +25 52 42.28  .35192 1.3117 146.4 22.2  63d  19
2021 09 20 20  01 15 52.153   +25 52 33.06  .35187 1.3118 146.4 22.2  63d  19
2021 09 20 21  01 15 55.694   +25 52 23.78  .35182 1.3118 146.4 22.2  63d  19
2021 09 20 22  01 15 59.231   +25 52 14.41  .35177 1.3118 146.5 22.2  63d  19
2021 09 20 23  01 16 02.765   +25 52 04.97  .35173 1.3118 146.5 22.2  63d  19
2021 09 21 00  01 16 06.295   +25 51 55.45  .35168 1.3118 146.5 22.2  63d  19
2021 09 21 01  01 16 09.822   +25 51 45.85  .35163 1.3119 146.6 22.2  63d  19
2021 09 21 02  01 16 13.345   +25 51 36.18  .35158 1.3119 146.6 22.2  63d  19
2021 09 21 03  01 16 16.865   +25 51 26.43  .35153 1.3119 146.6 22.2  63d  19
2021 09 21 04  01 16 20.381   +25 51 16.60  .35148 1.3119 146.6 22.2  63d  19
2021 09 21 05  01 16 23.894   +25 51 06.70  .35143 1.3119 146.7 22.2  63d  19
2021 09 21 06  01 16 27.403   +25 50 56.73  .35139 1.3119 146.7 22.2  64d  19
2021 09 21 07  01 16 30.909   +25 50 46.67  .35134 1.3120 146.7 22.2  64d  19
2021 09 21 08  01 16 34.411   +25 50 36.54  .35129 1.3120 146.8 22.2  64d  19
2021 09 21 09  01 16 37.909   +25 50 26.33  .35124 1.3120 146.8 22.2  64d  19
2021 09 21 10  01 16 41.405   +25 50 16.05  .35120 1.3120 146.8 22.2  64d  19
2021 09 21 11  01 16 44.896   +25 50 05.69  .35115 1.3120 146.8 22.2  64d  19
2021 09 21 12  01 16 48.384   +25 49 55.25  .35110 1.3121 146.9 22.2  64d  19
2021 09 21 13  01 16 51.869   +25 49 44.74  .35106 1.3121 146.9 22.2  64d  19
2021 09 21 14  01 16 55.350   +25 49 34.15  .35101 1.3121 146.9 22.2  64d  19
2021 09 21 15  01 16 58.828   +25 49 23.49  .35096 1.3121 147.0 22.2  64d  19
2021 09 21 16  01 17 02.301   +25 49 12.75  .35092 1.3121 147.0 22.2  64d  19
2021 09 21 17  01 17 05.772   +25 49 01.93  .35087 1.3122 147.0 22.2  64d  19
2021 09 21 18  01 17 09.239   +25 48 51.04  .35082 1.3122 147.0 22.2  64d  19
2021 09 21 19  01 17 12.702   +25 48 40.07  .35078 1.3122 147.1 22.2  64d  19
2021 09 21 20  01 17 16.162   +25 48 29.02  .35073 1.3122 147.1 22.2  64d  19
2021 09 21 21  01 17 19.618   +25 48 17.90  .35069 1.3122 147.1 22.2  64d  19
2021 09 21 22  01 17 23.071   +25 48 06.70  .35064 1.3123 147.2 22.2  65d  19
2021 09 21 23  01 17 26.520   +25 47 55.43  .35060 1.3123 147.2 22.2  65d  19
2021 09 22 00  01 17 29.966   +25 47 44.08  .35055 1.3123 147.2 22.2  65d  19
2021 09 22 01  01 17 33.408   +25 47 32.65  .35051 1.3123 147.3 22.2  65d  19
2021 09 22 02  01 17 36.846   +25 47 21.15  .35046 1.3123 147.3 22.2  65d  19
2021 09 22 03  01 17 40.281   +25 47 09.57  .35042 1.3124 147.3 22.2  65d  19
2021 09 22 04  01 17 43.712   +25 46 57.92  .35037 1.3124 147.3 22.2  65d  19
2021 09 22 05  01 17 47.140   +25 46 46.19  .35033 1.3124 147.4 22.2  65d  19
2021 09 22 06  01 17 50.564   +25 46 34.38  .35029 1.3124 147.4 22.2  65d  19
2021 09 22 07  01 17 53.985   +25 46 22.50  .35024 1.3125 147.4 22.2  65d  19
2021 09 22 08  01 17 57.402   +25 46 10.54  .35020 1.3125 147.5 22.2  65d  19
2021 09 22 09  01 18 00.815   +25 45 58.51  .35016 1.3125 147.5 22.2  65d  19
2021 09 22 10  01 18 04.225   +25 45 46.40  .35011 1.3125 147.5 22.2  65d  19
2021 09 22 11  01 18 07.632   +25 45 34.21  .35007 1.3125 147.5 22.2  65d  19
2021 09 22 12  01 18 11.034   +25 45 21.95  .35003 1.3126 147.6 22.2  65d  19
2021 09 22 13  01 18 14.433   +25 45 09.61  .34999 1.3126 147.6 22.2  65d  19
2021 09 22 14  01 18 17.829   +25 44 57.20  .34994 1.3126 147.6 22.2  65d  19
2021 09 22 15  01 18 21.221   +25 44 44.71  .34990 1.3126 147.7 22.2  65d  19
2021 09 22 16  01 18 24.609   +25 44 32.15  .34986 1.3127 147.7 22.2  65d  19